DLH2XN EGLL-EDDM

Flight info

Callsign DLH2XN
Flight time N/A
Altitude 37000
Route DET L6 DVR UL9 KONAN UL607 SPI DCT MOVUM T109 HAREM T104 ROKIL ROKIL1A
Aircraft A320/M-SDE3FGHIRWY/LB1

Departure

Time 2026-05-06 11:21
Airport London Heathrow Airport (EGLL)

Arrival

Time N/A
Airport Munich Airport (EDDM)
Time Latitude Longitude Altitude Speed Heading
2026-05-06 10:44 51.46996 -0.44686 89 ft 0 kts 269°
2026-05-06 11:08 51.46996 -0.44682 89 ft 3 kts 269°
2026-05-06 11:08 51.46997 -0.44640 88 ft 4 kts 266°
2026-05-06 11:08 51.47000 -0.44597 87 ft 4 kts 253°
2026-05-06 11:09 51.47011 -0.44563 89 ft 4 kts 200°
2026-05-06 11:09 51.47018 -0.44559 88 ft 0 kts 179°
2026-05-06 11:12 51.47013 -0.44559 88 ft 2 kts 179°
2026-05-06 11:12 51.46948 -0.44559 87 ft 12 kts 180°
2026-05-06 11:12 51.46849 -0.44558 87 ft 10 kts 180°
2026-05-06 11:12 51.46805 -0.44557 87 ft 5 kts 180°
2026-05-06 11:13 51.46777 -0.44557 87 ft 8 kts 180°
2026-05-06 11:13 51.46686 -0.44584 88 ft 13 kts 224°
2026-05-06 11:13 51.46668 -0.44722 87 ft 13 kts 272°
2026-05-06 11:13 51.46664 -0.44885 87 ft 17 kts 268°
2026-05-06 11:14 51.46661 -0.45091 87 ft 19 kts 269°
2026-05-06 11:14 51.46662 -0.45317 87 ft 21 kts 271°
2026-05-06 11:14 51.46663 -0.45563 87 ft 23 kts 270°
2026-05-06 11:14 51.46662 -0.45827 87 ft 24 kts 269°
2026-05-06 11:15 51.46659 -0.46105 90 ft 26 kts 270°
2026-05-06 11:15 51.46659 -0.46396 89 ft 27 kts 270°
2026-05-06 11:15 51.46658 -0.46690 88 ft 26 kts 267°
2026-05-06 11:15 51.46659 -0.46955 88 ft 20 kts 272°
2026-05-06 11:16 51.46655 -0.47183 88 ft 21 kts 267°
2026-05-06 11:16 51.46655 -0.47408 87 ft 14 kts 268°
2026-05-06 11:16 51.46646 -0.47484 90 ft 2 kts 232°
2026-05-06 11:16 51.46632 -0.47491 88 ft 3 kts 194°
2026-05-06 11:17 51.46624 -0.47493 88 ft 0 kts 189°
2026-05-06 11:17 51.46619 -0.47494 89 ft 0 kts 187°
2026-05-06 11:19 51.46613 -0.47495 90 ft 6 kts 186°
2026-05-06 11:19 51.46573 -0.47494 86 ft 4 kts 173°
2026-05-06 11:20 51.46512 -0.47480 90 ft 10 kts 139°
2026-05-06 11:20 51.46484 -0.47379 90 ft 18 kts 92°
2026-05-06 11:20 51.46488 -0.46788 89 ft 89 kts 89°
2026-05-06 11:20 51.46490 -0.45458 86 ft 147 kts 90°
2026-05-06 11:21 51.46482 -0.43618 364 ft 170 kts 90°
2026-05-06 11:21 51.46470 -0.41750 1156 ft 167 kts 98°
2026-05-06 11:21 51.45923 -0.40070 1675 ft 181 kts 132°
2026-05-06 11:21 51.45046 -0.38483 2006 ft 203 kts 129°
2026-05-06 11:22 51.44199 -0.36496 2357 ft 229 kts 121°
2026-05-06 11:22 51.43495 -0.34067 2832 ft 253 kts 103°
2026-05-06 11:22 51.43151 -0.31224 3610 ft 263 kts 101°
2026-05-06 11:22 51.42768 -0.28326 4571 ft 267 kts 102°
2026-05-06 11:23 51.42362 -0.25386 5477 ft 273 kts 102°
2026-05-06 11:23 51.41951 -0.22391 5877 ft 276 kts 102°
2026-05-06 11:23 51.41541 -0.19391 5987 ft 275 kts 102°
2026-05-06 11:23 51.41133 -0.16397 6014 ft 275 kts 102°
2026-05-06 11:24 51.40724 -0.13401 6015 ft 275 kts 102°
2026-05-06 11:24 51.40314 -0.10415 6015 ft 275 kts 102°
2026-05-06 11:24 51.39902 -0.07416 6015 ft 275 kts 102°
2026-05-06 11:24 51.39491 -0.04436 6017 ft 275 kts 102°
2026-05-06 11:25 51.39077 -0.01457 6014 ft 275 kts 102°
2026-05-06 11:25 51.38676 0.01414 6015 ft 275 kts 103°
2026-05-06 11:25 51.38259 0.04395 6015 ft 275 kts 102°
2026-05-06 11:25 51.37843 0.07362 6013 ft 275 kts 103°
2026-05-06 11:26 51.37423 0.10354 6014 ft 275 kts 103°
2026-05-06 11:26 51.37005 0.13332 6016 ft 275 kts 103°
2026-05-06 11:26 51.36585 0.16345 6014 ft 275 kts 102°
2026-05-06 11:26 51.36186 0.19339 6355 ft 282 kts 102°
2026-05-06 11:27 51.35783 0.22434 7406 ft 280 kts 102°
2026-05-06 11:27 51.35392 0.25462 8317 ft 283 kts 102°
2026-05-06 11:27 51.34993 0.28579 9190 ft 287 kts 102°
2026-05-06 11:27 51.34588 0.31724 10043 ft 291 kts 102°
2026-05-06 11:28 51.34165 0.34982 10509 ft 311 kts 102°
2026-05-06 11:28 51.33708 0.38486 10824 ft 332 kts 102°
2026-05-06 11:28 51.33225 0.42167 11480 ft 341 kts 102°
2026-05-06 11:28 51.32733 0.45893 12235 ft 345 kts 102°
2026-05-06 11:29 51.32232 0.49668 12989 ft 349 kts 102°
2026-05-06 11:29 51.31727 0.53483 13697 ft 353 kts 102°
2026-05-06 11:29 51.31218 0.57347 14401 ft 357 kts 102°
2026-05-06 11:29 51.30701 0.61250 15091 ft 360 kts 102°
2026-05-06 11:30 51.30176 0.65180 15761 ft 364 kts 102°
2026-05-06 11:30 51.29643 0.69150 16420 ft 367 kts 102°
2026-05-06 11:30 51.29110 0.73109 17050 ft 371 kts 102°
2026-05-06 11:30 51.28558 0.77205 17675 ft 374 kts 102°
2026-05-06 11:31 51.28005 0.81286 18276 ft 378 kts 102°
2026-05-06 11:31 51.27445 0.85400 18865 ft 381 kts 102°
2026-05-06 11:31 51.26883 0.89552 19441 ft 384 kts 102°
2026-05-06 11:31 51.26322 0.93691 19995 ft 387 kts 102°
2026-05-06 11:32 51.25747 0.97915 20539 ft 391 kts 102°
2026-05-06 11:32 51.25165 1.02167 21064 ft 394 kts 102°
2026-05-06 11:32 51.24574 1.06449 21582 ft 397 kts 102°
2026-05-06 11:32 51.23977 1.10763 22084 ft 400 kts 102°
2026-05-06 11:33 51.23376 1.15113 22574 ft 403 kts 102°
2026-05-06 11:33 51.22770 1.19497 23044 ft 406 kts 102°
2026-05-06 11:33 51.22161 1.23903 23500 ft 409 kts 102°
2026-05-06 11:33 51.21543 1.28341 23947 ft 411 kts 102°
2026-05-06 11:34 51.20916 1.32810 24395 ft 414 kts 103°
2026-05-06 11:34 51.20283 1.37301 24820 ft 417 kts 103°
2026-05-06 11:34 51.19643 1.41838 25235 ft 419 kts 103°
2026-05-06 11:34 51.19000 1.46379 25626 ft 422 kts 103°
2026-05-06 11:35 51.18353 1.50953 26021 ft 424 kts 103°
2026-05-06 11:35 51.17703 1.55558 26399 ft 427 kts 103°
2026-05-06 11:35 51.17047 1.60180 26780 ft 429 kts 103°
2026-05-06 11:35 51.16386 1.64816 27146 ft 432 kts 103°
2026-05-06 11:36 51.15716 1.69500 27505 ft 434 kts 103°
2026-05-06 11:36 51.15042 1.74202 27859 ft 436 kts 103°
2026-05-06 11:36 51.14376 1.78812 28201 ft 439 kts 103°
2026-05-06 11:36 51.13691 1.83527 28544 ft 441 kts 103°
2026-05-06 11:37 51.13006 1.88253 28869 ft 443 kts 103°
2026-05-06 11:37 51.12303 1.93076 29185 ft 445 kts 103°
2026-05-06 11:37 51.11605 1.97872 29499 ft 448 kts 103°
2026-05-06 11:37 51.10904 2.02674 29794 ft 450 kts 103°
2026-05-06 11:38 51.10188 2.07562 30080 ft 452 kts 103°
2026-05-06 11:38 51.09465 2.12464 30366 ft 454 kts 103°
2026-05-06 11:38 51.08743 2.17332 30643 ft 456 kts 103°
2026-05-06 11:38 51.08017 2.22209 30911 ft 457 kts 103°
2026-05-06 11:39 51.07277 2.27179 31182 ft 459 kts 103°
2026-05-06 11:39 51.06540 2.32117 31496 ft 459 kts 103°
2026-05-06 11:39 51.05805 2.37038 31870 ft 458 kts 103°
2026-05-06 11:39 51.05066 2.41970 32235 ft 458 kts 103°
2026-05-06 11:40 51.04335 2.46838 32590 ft 457 kts 103°
2026-05-06 11:40 51.03591 2.51775 32944 ft 456 kts 103°
2026-05-06 11:40 51.02856 2.56638 33290 ft 455 kts 103°
2026-05-06 11:40 51.02110 2.61561 33636 ft 455 kts 103°
2026-05-06 11:41 51.01372 2.66400 33969 ft 454 kts 103°
2026-05-06 11:41 51.00629 2.71254 34301 ft 453 kts 104°
2026-05-06 11:41 50.99884 2.76091 34631 ft 453 kts 104°
2026-05-06 11:41 50.99126 2.80982 34952 ft 452 kts 104°
2026-05-06 11:42 50.98375 2.85813 35258 ft 451 kts 104°
2026-05-06 11:42 50.97622 2.90654 35545 ft 451 kts 104°
2026-05-06 11:42 50.96874 2.95474 35826 ft 450 kts 104°
2026-05-06 11:42 50.96131 3.00269 36094 ft 450 kts 104°
2026-05-06 11:43 50.95385 3.05085 36347 ft 449 kts 104°
2026-05-06 11:43 50.94640 3.09886 36583 ft 449 kts 104°
2026-05-06 11:43 50.93895 3.14652 36811 ft 449 kts 104°
2026-05-06 11:44 50.92378 3.24264 37011 ft 449 kts 104°
2026-05-06 11:44 50.91617 3.29053 37009 ft 448 kts 104°
2026-05-06 11:44 50.90087 3.38625 37009 ft 448 kts 104°
2026-05-06 11:45 50.88561 3.48193 37009 ft 448 kts 104°
2026-05-06 11:45 50.87030 3.57709 37009 ft 448 kts 104°
2026-05-06 11:46 50.85478 3.67279 37010 ft 448 kts 104°
2026-05-06 11:46 50.83929 3.76784 37011 ft 448 kts 104°
2026-05-06 11:47 50.82364 3.86331 37014 ft 449 kts 104°
2026-05-06 11:47 50.80791 3.95895 37016 ft 449 kts 104°
2026-05-06 11:48 50.79218 4.05423 37017 ft 448 kts 104°
2026-05-06 11:48 50.77634 4.14935 37017 ft 448 kts 105°
2026-05-06 11:49 50.76027 4.24497 37017 ft 448 kts 105°
2026-05-06 11:49 50.74427 4.33976 37016 ft 448 kts 105°
2026-05-06 11:50 50.72820 4.43496 37015 ft 448 kts 105°
2026-05-06 11:50 50.71150 4.52999 37015 ft 449 kts 107°
2026-05-06 11:51 50.69295 4.62336 37016 ft 449 kts 108°
2026-05-06 11:51 50.67366 4.71705 37016 ft 449 kts 108°
2026-05-06 11:52 50.65462 4.81074 37015 ft 449 kts 108°
2026-05-06 11:52 50.63579 4.90459 37016 ft 449 kts 108°
2026-05-06 11:53 50.61693 4.99831 37017 ft 449 kts 108°
2026-05-06 11:53 50.59792 5.09201 37017 ft 449 kts 108°
2026-05-06 11:54 50.57874 5.18572 37018 ft 449 kts 108°
2026-05-06 11:54 50.55952 5.27932 37017 ft 449 kts 108°
2026-05-06 11:55 50.54026 5.37276 37019 ft 449 kts 108°
2026-05-06 11:55 50.52095 5.46619 37017 ft 449 kts 108°
2026-05-06 11:56 50.50153 5.55944 37017 ft 450 kts 108°
2026-05-06 11:56 50.48199 5.65280 37018 ft 450 kts 108°
2026-05-06 11:57 50.46239 5.74596 37019 ft 450 kts 108°
2026-05-06 11:57 50.44270 5.83928 37011 ft 450 kts 108°
2026-05-06 11:58 50.42300 5.93245 37009 ft 450 kts 108°
2026-05-06 11:58 50.40331 6.02503 37010 ft 451 kts 108°
2026-05-06 11:59 50.38332 6.11828 37009 ft 451 kts 109°
2026-05-06 11:59 50.36333 6.21138 37010 ft 451 kts 109°
2026-05-06 12:00 50.34325 6.30442 37009 ft 451 kts 109°
2026-05-06 12:00 50.32304 6.39742 37012 ft 451 kts 109°
2026-05-06 12:01 50.30618 6.47467 37012 ft 452 kts 109°
2026-05-06 12:01 50.28582 6.56779 37014 ft 452 kts 109°
2026-05-06 12:02 50.26541 6.66073 37019 ft 452 kts 109°
2026-05-06 12:02 50.24498 6.75377 37020 ft 451 kts 109°
2026-05-06 12:03 50.22440 6.84651 37019 ft 452 kts 109°
2026-05-06 12:03 50.20391 6.93861 37019 ft 451 kts 109°
2026-05-06 12:04 50.18333 7.03108 37020 ft 451 kts 109°
2026-05-06 12:04 50.16244 7.12390 37019 ft 451 kts 109°
2026-05-06 12:05 50.14162 7.21585 37023 ft 450 kts 111°
2026-05-06 12:05 50.11150 7.30097 37020 ft 449 kts 121°
2026-05-06 12:06 50.07912 7.38433 37013 ft 449 kts 121°
2026-05-06 12:06 50.04676 7.46715 37005 ft 449 kts 121°
2026-05-06 12:07 50.01419 7.55012 37004 ft 450 kts 121°
2026-05-06 12:07 49.98146 7.63310 37006 ft 450 kts 122°
2026-05-06 12:08 49.94874 7.71591 37005 ft 450 kts 122°
2026-05-06 12:08 49.91599 7.79854 37009 ft 450 kts 122°
2026-05-06 12:09 49.88313 7.88132 37015 ft 449 kts 122°
2026-05-06 12:09 49.85050 7.96317 37019 ft 449 kts 122°
2026-05-06 12:10 49.81798 8.04417 37019 ft 449 kts 122°
2026-05-06 12:10 49.78498 8.12651 37018 ft 449 kts 122°
2026-05-06 12:11 49.75203 8.20858 37019 ft 449 kts 122°
2026-05-06 12:11 49.71902 8.29053 37018 ft 449 kts 122°
2026-05-06 12:12 49.68584 8.37225 37020 ft 449 kts 122°
2026-05-06 12:12 49.65263 8.45386 37021 ft 449 kts 122°
2026-05-06 12:13 49.61969 8.53477 37019 ft 448 kts 122°
2026-05-06 12:13 49.58647 8.61618 37019 ft 448 kts 122°
2026-05-06 12:14 49.55308 8.69768 37015 ft 448 kts 122°
2026-05-06 12:14 49.51975 8.77875 37008 ft 448 kts 122°
2026-05-06 12:15 49.48629 8.85975 37004 ft 449 kts 122°
2026-05-06 12:15 49.45289 8.94050 37005 ft 449 kts 122°
2026-05-06 12:16 49.41931 9.02144 37008 ft 449 kts 122°
2026-05-06 12:16 49.38570 9.10236 37014 ft 449 kts 122°
2026-05-06 12:17 49.35203 9.18314 37013 ft 449 kts 123°
2026-05-06 12:17 49.31826 9.26362 37012 ft 449 kts 123°
2026-05-06 12:18 49.28440 9.34406 37013 ft 449 kts 123°
2026-05-06 12:18 49.25055 9.42443 37007 ft 449 kts 123°
2026-05-06 12:19 49.21761 9.50240 37005 ft 450 kts 123°
2026-05-06 12:19 49.18354 9.58263 37004 ft 450 kts 123°
2026-05-06 12:20 49.14938 9.66291 37001 ft 451 kts 123°
2026-05-06 12:20 49.11742 9.73804 37006 ft 451 kts 123°
2026-05-06 12:21 49.08317 9.81826 37008 ft 451 kts 123°
2026-05-06 12:21 49.05164 9.89171 37009 ft 452 kts 123°
2026-05-06 12:22 49.01716 9.97177 37010 ft 452 kts 123°
2026-05-06 12:22 48.98542 10.04549 37009 ft 452 kts 123°
2026-05-06 12:23 48.95555 10.11467 37010 ft 452 kts 123°
2026-05-06 12:23 48.92089 10.19454 37011 ft 452 kts 123°
2026-05-06 12:24 48.90373 10.23398 36578 ft 455 kts 123°
2026-05-06 12:24 48.88608 10.27448 35515 ft 464 kts 123°
2026-05-06 12:24 48.86810 10.31562 34557 ft 469 kts 123°
2026-05-06 12:24 48.85000 10.35698 33661 ft 472 kts 123°
2026-05-06 12:25 48.83161 10.39801 33097 ft 466 kts 128°
2026-05-06 12:25 48.80906 10.43229 32741 ft 456 kts 142°
2026-05-06 12:25 48.78374 10.46097 32240 ft 449 kts 144°
2026-05-06 12:25 48.75859 10.48868 31740 ft 444 kts 144°
2026-05-06 12:26 48.73369 10.51603 31239 ft 439 kts 144°
2026-05-06 12:26 48.70942 10.54265 30749 ft 435 kts 144°
2026-05-06 12:26 48.68501 10.56941 30244 ft 431 kts 144°
2026-05-06 12:26 48.66085 10.59588 29749 ft 427 kts 144°
2026-05-06 12:27 48.63686 10.62214 29244 ft 423 kts 144°
2026-05-06 12:27 48.61308 10.64816 28742 ft 420 kts 144°
2026-05-06 12:27 48.58947 10.67397 28242 ft 417 kts 144°
2026-05-06 12:27 48.56602 10.69959 27732 ft 413 kts 144°
2026-05-06 12:28 48.54292 10.72481 27241 ft 410 kts 144°
2026-05-06 12:28 48.52004 10.74979 26737 ft 407 kts 144°
2026-05-06 12:28 48.49718 10.77472 26244 ft 404 kts 144°
2026-05-06 12:28 48.47449 10.79946 25741 ft 401 kts 144°
2026-05-06 12:29 48.45199 10.82396 25189 ft 396 kts 144°
2026-05-06 12:29 48.42977 10.84816 24556 ft 393 kts 144°
2026-05-06 12:29 48.40778 10.87209 23933 ft 389 kts 144°
2026-05-06 12:29 48.38604 10.89575 23312 ft 385 kts 144°
2026-05-06 12:30 48.36413 10.91957 22682 ft 382 kts 144°
2026-05-06 12:30 48.34270 10.94286 22050 ft 378 kts 144°
2026-05-06 12:30 48.32160 10.96578 21429 ft 380 kts 144°
2026-05-06 12:30 48.29991 10.98932 20803 ft 381 kts 144°
2026-05-06 12:31 48.27846 11.01258 20183 ft 383 kts 144°
2026-05-06 12:31 48.25697 11.03589 19556 ft 384 kts 144°
2026-05-06 12:31 48.23523 11.05944 18925 ft 384 kts 144°
2026-05-06 12:31 48.21362 11.08284 18277 ft 376 kts 144°
2026-05-06 12:32 48.19273 11.10546 17652 ft 365 kts 144°
2026-05-06 12:32 48.17246 11.12739 17037 ft 355 kts 144°
2026-05-06 12:32 48.15258 11.14890 16412 ft 350 kts 144°
2026-05-06 12:32 48.13276 11.17034 15786 ft 354 kts 144°
2026-05-06 12:33 48.11296 11.19173 15167 ft 357 kts 144°
2026-05-06 12:33 48.09276 11.21355 14540 ft 360 kts 144°
2026-05-06 12:33 48.07238 11.23554 13909 ft 362 kts 144°
2026-05-06 12:33 48.05351 11.26043 13278 ft 364 kts 129°
2026-05-06 12:34 48.04139 11.29348 12645 ft 365 kts 108°
2026-05-06 12:34 48.03799 11.33083 12019 ft 364 kts 86°
2026-05-06 12:34 48.04274 11.36791 11392 ft 363 kts 75°
2026-05-06 12:34 48.04932 11.40419 10767 ft 362 kts 75°